QPF
0.00 0.00 0.00 0.00 0.00 0.00 0.00 0.00 0.00 0.00 0.00 0.00 0.00 0.00 0.00 0.00 0.00 0.01 0.01 0.00 0.00 0.01 0.01 0.02 0.05 0.07 0.06 0.07 0.08 0.06 0.07 0.11 0.10 0.11 0.09 0.10 0.10 0.09 0.08 0.09 0.08 0.07 0.08 0.10 0.10 0.10 0.08 0.06 0.07
0.00 0.00 0.00 0.00 0.00 0.00 0.01 0.01 0.00 0.00 0.00 0.00 0.00 0.00 0.00 0.00 0.00 0.00 0.01 0.00 0.01 0.01 0.01 0.02 0.05 0.07 0.06 0.08 0.09 0.10 0.18 0.15 0.09 0.10 0.10 0.10 0.13 0.15 0.14 0.10 0.09 0.07 0.09 0.11 0.09 0.08 0.07 0.06 0.07
0.00 0.00 0.00 0.00 0.00 0.00 0.00 0.00 0.00 0.00 0.00 0.00 0.00 0.00 0.00 0.00 0.00 0.00 0.00 0.00 0.01 0.01 0.01 0.03 0.06 0.07 0.06 0.07 0.09 0.09 0.13 0.11 0.09 0.12 0.13 0.15 0.18 0.15 0.12 0.09 0.08 0.08 0.08 0.09 0.09 0.07 0.07 0.06 0.06
0.00 0.00 0.00 0.00 0.00 0.00 0.00 0.00 0.00 0.00 0.01 0.01 0.00 0.00 0.00 0.00 0.00 0.00 0.00 0.00 0.00 0.01 0.01 0.03 0.07 0.07 0.07 0.07 0.09 0.07 0.09 0.10 0.13 0.17 0.18 0.18 0.16 0.14 0.11 0.08 0.08 0.08 0.07 0.07 0.08 0.06 0.08 0.07 0.06
0.00 0.00 0.00 0.00 0.00 0.00 0.01 0.01 0.01 0.01 0.01 0.01 0.01 0.00 0.00 0.01 0.01 0.00 0.00 0.00 0.00 0.00 0.01 0.02 0.06 0.07 0.08 0.10 0.11 0.08 0.05 0.05 0.07 0.09 0.11 0.12 0.12 0.12 0.09 0.08 0.08 0.06 0.06 0.10 0.13 0.09 0.10 0.09 0.09
0.00 0.00 0.01 0.00 0.00 0.00 0.00 0.01 0.01 0.01 0.01 0.01 0.00 0.01 0.01 0.01 0.02 0.01 0.00 0.00 0.00 0.01 0.01 0.02 0.05 0.05 0.06 0.07 0.09 0.09 0.04 0.04 0.05 0.06 0.07 0.08 0.08 0.08 0.07 0.07 0.08 0.07 0.07 0.08 0.09 0.10 0.11 0.13 0.13
0.00 0.00 0.01 0.01 0.00 0.00 0.00 0.00 0.00 0.01 0.01 0.01 0.00 0.00 0.01 0.01 0.02 0.01 0.01 0.01 0.01 0.01 0.01 0.03 0.04 0.02 0.03 0.04 0.07 0.07 0.05 0.04 0.05 0.06 0.07 0.07 0.06 0.06 0.06 0.05 0.10 0.12 0.11 0.14 0.13 0.13 0.14 0.20 0.20
0.00 0.00 0.00 0.00 0.00 0.00 0.00 0.00 0.00 0.01 0.01 0.00 0.00 0.00 0.00 0.00 0.01 0.01 0.01 0.01 0.01 0.01 0.01 0.03 0.04 0.03 0.04 0.04 0.05 0.05 0.04 0.04 0.04 0.05 0.06 0.05 0.04 0.04 0.04 0.04 0.09 0.22 0.32 0.32 0.25 0.17 0.17 0.16 0.12
0.00 0.00 0.00 0.00 0.00 0.00 0.00 0.00 0.00 0.00 0.00 0.00 0.00 0.00 0.00 0.00 0.00 0.01 0.01 0.01 0.01 0.01 0.01 0.02 0.03 0.04 0.04 0.03 0.03 0.04 0.04 0.04 0.04 0.04 0.04 0.03 0.03 0.03 0.05 0.04 0.05 0.09 0.15 0.18 0.17 0.12 0.10 0.08 0.05
0.00 0.00 0.00 0.00 0.00 0.00 0.00 0.00 0.00 0.00 0.00 0.00 0.00 0.00 0.00 0.00 0.01 0.01 0.00 0.01 0.01 0.01 0.01 0.01 0.01 0.02 0.02 0.01 0.02 0.03 0.02 0.02 0.02 0.02 0.03 0.03 0.02 0.03 0.03 0.03 0.06 0.07 0.08 0.07 0.07 0.06 0.04 0.03 0.04
0.00 0.00 0.00 0.00 0.01 0.00 0.00 0.00 0.00 0.00 0.01 0.00 0.00 0.00 0.00 0.00 0.00 0.01 0.01 0.01 0.00 0.00 0.01 0.01 0.01 0.01 0.01 0.01 0.01 0.02 0.02 0.02 0.02 0.02 0.02 0.02 0.01 0.02 0.03 0.04 0.04 0.05 0.03 0.02 0.02 0.02 0.01 0.01 0.02
0.00 0.00 0.00 0.00 0.00 0.00 0.00 0.00 0.00 0.00 0.01 0.00 0.00 0.00 0.00 0.01 0.01 0.01 0.02 0.02 0.02 0.01 0.01 0.00 0.01 0.01 0.01 0.00 0.01 0.02 0.02 0.02 0.02 0.03 0.03 0.02 0.01 0.02 0.03 0.02 0.03 0.04 0.02 0.02 0.02 0.01 0.00 0.00 0.01
0.00 0.00 0.00 0.00 0.00 0.00 0.00 0.00 0.00 0.00 0.00 0.00 0.01 0.00 0.01 0.01 0.01 0.01 0.02 0.02 0.02 0.02 0.01 0.00 0.00 0.01 0.01 0.01 0.01 0.02 0.03 0.03 0.03 0.03 0.04 0.03 0.02 0.01 0.01 0.01 0.02 0.02 0.03 0.02 0.02 0.01 0.00 0.00 0.00
0.00 0.01 0.00 0.00 0.00 0.00 0.00 0.01 0.01 0.01 0.00 0.01 0.02 0.01 0.01 0.01 0.01 0.01 0.01 0.01 0.02 0.02 0.02 0.01 0.00 0.00 0.01 0.01 0.01 0.02 0.04 0.03 0.03 0.04 0.04 0.03 0.02 0.02 0.01 0.01 0.01 0.01 0.03 0.04 0.02 0.01 0.00 0.00 0.00
0.01 0.01 0.01 0.01 0.01 0.01 0.01 0.01 0.01 0.01 0.00 0.01 0.02 0.02 0.01 0.01 0.01 0.01 0.01 0.01 0.01 0.01 0.02 0.01 0.01 0.01 0.01 0.01 0.03 0.05 0.10 0.09 0.07 0.04 0.03 0.02 0.02 0.01 0.01 0.01 0.01 0.01 0.03 0.05 0.03 0.01 0.00 0.00 0.00
0.01 0.01 0.02 0.02 0.01 0.01 0.01 0.02 0.02 0.01 0.01 0.01 0.02 0.02 0.02 0.02 0.01 0.01 0.01 0.01 0.01 0.01 0.01 0.02 0.02 0.02 0.01 0.02 0.04 0.08 0.11 0.12 0.09 0.05 0.02 0.01 0.01 0.01 0.01 0.01 0.01 0.02 0.03 0.03 0.03 0.02 0.01 0.00 0.00
0.01 0.01 0.01 0.01 0.01 0.01 0.00 0.01 0.01 0.01 0.01 0.01 0.01 0.01 0.01 0.01 0.01 0.01 0.01 0.01 0.02 0.02 0.01 0.02 0.02 0.02 0.02 0.03 0.03 0.04 0.05 0.06 0.05 0.03 0.02 0.02 0.01 0.01 0.01 0.01 0.01 0.02 0.02 0.02 0.02 0.01 0.01 0.01 0.00
0.01 0.01 0.01 0.01 0.01 0.01 0.01 0.01 0.01 0.00 0.01 0.01 0.01 0.01 0.00 0.00 0.01 0.01 0.01 0.01 0.02 0.02 0.01 0.01 0.01 0.02 0.02 0.02 0.03 0.03 0.02 0.02 0.02 0.02 0.03 0.02 0.02 0.02 0.01 0.01 0.01 0.01 0.01 0.02 0.02 0.01 0.00 0.01 0.01
0.01 0.01 0.01 0.01 0.01 0.01 0.01 0.01 0.00 0.00 0.01 0.02 0.02 0.01 0.01 0.01 0.01 0.01 0.00 0.01 0.01 0.01 0.01 0.01 0.01 0.01 0.01 0.02 0.02 0.03 0.02 0.02 0.02 0.02 0.03 0.03 0.03 0.02 0.01 0.01 0.01 0.01 0.02 0.02 0.02 0.01 0.01 0.01 0.00
0.01 0.01 0.00 0.01 0.01 0.01 0.01 0.00 0.00 0.00 0.01 0.01 0.01 0.01 0.00 0.00 0.00 0.01 0.00 0.00 0.01 0.01 0.02 0.02 0.01 0.01 0.01 0.01 0.02 0.02 0.03 0.02 0.01 0.01 0.01 0.01 0.02 0.02 0.01 0.01 0.01 0.02 0.02 0.02 0.02 0.02 0.02 0.01 0.01
0.00 0.01 0.01 0.01 0.01 0.01 0.01 0.01 0.00 0.00 0.00 0.00 0.01 0.01 0.00 0.00 0.01 0.01 0.00 0.00 0.00 0.01 0.02 0.04 0.02 0.02 0.02 0.02 0.02 0.02 0.02 0.02 0.02 0.01 0.01 0.01 0.01 0.01 0.01 0.01 0.01 0.02 0.02 0.02 0.01 0.01 0.02 0.02 0.01
0.00 0.00 0.01 0.00 0.01 0.01 0.01 0.01 0.00 0.00 0.00 0.00 0.00 0.01 0.01 0.01 0.01 0.01 0.01 0.00 0.00 0.01 0.02 0.04 0.04 0.04 0.02 0.02 0.02 0.02 0.02 0.01 0.01 0.01 0.01 0.01 0.01 0.02 0.02 0.02 0.02 0.02 0.02 0.02 0.01 0.01 0.02 0.02 0.02
0.01 0.01 0.00 0.00 0.00 0.00 0.00 0.01 0.00 0.00 0.00 0.00 0.01 0.02 0.01 0.01 0.01 0.01 0.01 0.01 0.01 0.01 0.02 0.03 0.03 0.04 0.04 0.03 0.02 0.02 0.02 0.02 0.02 0.01 0.01 0.01 0.01 0.01 0.02 0.02 0.01 0.01 0.01 0.01 0.01 0.01 0.02 0.02 0.01
0.01 0.01 0.00 0.00 0.01 0.00 0.00 0.01 0.01 0.00 0.00 0.01 0.00 0.01 0.02 0.03 0.03 0.02 0.01 0.01 0.01 0.01 0.01 0.02 0.02 0.02 0.03 0.03 0.03 0.02 0.01 0.01 0.01 0.01 0.01 0.01 0.00 0.01 0.02 0.02 0.01 0.01 0.01 0.01 0.01 0.01 0.02 0.01 0.02
0.01 0.01 0.02 0.01 0.01 0.00 0.00 0.00 0.01 0.00 0.00 0.00 0.01 0.01 0.02 0.03 0.02 0.02 0.01 0.01 0.01 0.01 0.00 0.01 0.03 0.02 0.02 0.02 0.02 0.02 0.02 0.02 0.02 0.02 0.02 0.01 0.01 0.01 0.01 0.02 0.01 0.01 0.02 0.02 0.01 0.01 0.01 0.02 0.02
0.02 0.02 0.03 0.02 0.01 0.00 0.00 0.01 0.00 0.00 0.00 0.00 0.01 0.01 0.03 0.04 0.01 0.01 0.01 0.01 0.01 0.01 0.01 0.01 0.02 0.03 0.03 0.03 0.02 0.02 0.02 0.02 0.02 0.01 0.01 0.01 0.01 0.01 0.01 0.01 0.02 0.02 0.01 0.01 0.01 0.01 0.02 0.01 0.02
0.02 0.03 0.03 0.02 0.01 0.01 0.01 0.01 0.00 0.01 0.01 0.01 0.01 0.01 0.02 0.01 0.00 0.00 0.01 0.01 0.01 0.01 0.01 0.01 0.01 0.02 0.02 0.03 0.02 0.01 0.01 0.01 0.01 0.01 0.00 0.01 0.01 0.02 0.02 0.02 0.02 0.01 0.01 0.01 0.00 0.01 0.01 0.01 0.01
0.02 0.02 0.04 0.04 0.02 0.01 0.01 0.01 0.01 0.01 0.01 0.00 0.01 0.00 0.01 0.01 0.01 0.01 0.01 0.02 0.02 0.01 0.01 0.01 0.01 0.01 0.01 0.02 0.02 0.01 0.01 0.01 0.01 0.01 0.01 0.01 0.01 0.01 0.01 0.01 0.02 0.02 0.01 0.01 0.01 0.00 0.01 0.01 0.01
0.01 0.02 0.03 0.04 0.02 0.02 0.01 0.01 0.01 0.01 0.01 0.01 0.00 0.00 0.01 0.01 0.01 0.02 0.03 0.03 0.02 0.01 0.01 0.01 0.01 0.01 0.01 0.02 0.02 0.01 0.01 0.01 0.01 0.01 0.01 0.01 0.01 0.01 0.01 0.01 0.01 0.01 0.01 0.01 0.00 0.00 0.01 0.01 0.01
0.01 0.01 0.02 0.03 0.02 0.02 0.02 0.01 0.01 0.01 0.01 0.01 0.01 0.01 0.00 0.00 0.01 0.01 0.01 0.00 0.00 0.01 0.01 0.01 0.01 0.01 0.02 0.02 0.02 0.01 0.01 0.01 0.01 0.01 0.01 0.01 0.01 0.01 0.01 0.01 0.01 0.01 0.01 0.01 0.01 0.01 0.01 0.01 0.01
MSLP
1005.72 1006.39 1007.35 1008.49 1009.69 1010.82 1011.77 1012.47 1012.89 1013.04 1013.01 1012.88 1012.72 1012.59 1012.48 1012.37 1012.21 1011.95 1011.55 1011.00 1010.34 1009.63 1008.94 1008.34 1007.87 1007.54 1007.32 1007.15 1006.99 1006.79 1006.53 1006.22 1005.90 1005.62 1005.43 1005.35 1005.37 1005.49 1005.65 1005.83 1005.98 1006.11 1006.20 1006.30 1006.42 1006.59 1006.82 1007.09 1007.37
1006.11 1006.97 1008.08 1009.31 1010.53 1011.59 1012.42 1012.94 1013.16 1013.13 1012.94 1012.70 1012.48 1012.34 1012.25 1012.20 1012.11 1011.92 1011.58 1011.09 1010.48 1009.81 1009.16 1008.60 1008.18 1007.88 1007.69 1007.55 1007.40 1007.20 1006.93 1006.60 1006.25 1005.95 1005.72 1005.60 1005.59 1005.67 1005.80 1005.93 1006.04 1006.11 1006.16 1006.21 1006.29 1006.43 1006.63 1006.89 1007.18
1006.67 1007.70 1008.91 1010.16 1011.33 1012.28 1012.93 1013.26 1013.28 1013.08 1012.76 1012.43 1012.18 1012.03 1011.97 1011.96 1011.92 1011.78 1011.49 1011.06 1010.51 1009.90 1009.32 1008.83 1008.47 1008.23 1008.09 1007.98 1007.86 1007.67 1007.40 1007.07 1006.72 1006.40 1006.16 1006.02 1005.98 1006.03 1006.11 1006.19 1006.24 1006.24 1006.22 1006.21 1006.23 1006.32 1006.48 1006.72 1007.00
1007.39 1008.53 1009.77 1010.99 1012.06 1012.86 1013.32 1013.46 1013.31 1012.97 1012.55 1012.17 1011.89 1011.75 1011.71 1011.73 1011.72 1011.61 1011.36 1010.97 1010.48 1009.94 1009.44 1009.04 1008.76 1008.60 1008.52 1008.46 1008.37 1008.20 1007.95 1007.64 1007.30 1006.99 1006.75 1006.60 1006.55 1006.57 1006.61 1006.63 1006.61 1006.54 1006.45 1006.35 1006.30 1006.32 1006.44 1006.64 1006.90
1008.19 1009.37 1010.60 1011.74 1012.67 1013.30 1013.60 1013.57 1013.28 1012.85 1012.38 1011.99 1011.71 1011.58 1011.56 1011.59 1011.59 1011.49 1011.26 1010.91 1010.47 1010.01 1009.59 1009.28 1009.09 1009.00 1008.99 1008.98 1008.92 1008.79 1008.56 1008.27 1007.96 1007.67 1007.45 1007.32 1007.26 1007.26 1007.26 1007.23 1007.14 1007.00 1006.82 1006.65 1006.52 1006.47 1006.52 1006.68 1006.92
1008.97 1010.15 1011.32 1012.34 1013.12 1013.60 1013.74 1013.60 1013.24 1012.77 1012.31 1011.94 1011.70 1011.59 1011.59 1011.61 1011.60 1011.49 1011.27 1010.94 1010.55 1010.16 1009.82 1009.59 1009.48 1009.47 1009.50 1009.53 1009.50 1009.39 1009.18 1008.92 1008.64 1008.39 1008.21 1008.09 1008.04 1008.02 1008.00 1007.92 1007.78 1007.57 1007.32 1007.07 1006.87 1006.76 1006.75 1006.86 1007.08
1009.66 1010.78 1011.84 1012.74 1013.37 1013.71 1013.75 1013.55 1013.18 1012.74 1012.33 1012.02 1011.84 1011.77 1011.78 1011.80 1011.77 1011.65 1011.42 1011.11 1010.76 1010.43 1010.16 1010.00 1009.95 1009.98 1010.04 1010.08 1010.06 1009.95 1009.77 1009.53 1009.29 1009.08 1008.92 1008.84 1008.80 1008.77 1008.72 1008.61 1008.42 1008.16 1007.86 1007.56 1007.31 1007.15 1007.10 1007.17 1007.36
1010.20 1011.22 1012.16 1012.91 1013.41 1013.65 1013.63 1013.42 1013.09 1012.73 1012.42 1012.20 1012.09 1012.07 1012.10 1012.12 1012.07 1011.93 1011.70 1011.41 1011.10 1010.81 1010.61 1010.49 1010.47 1010.52 1010.57 1010.60 1010.56 1010.45 1010.27 1010.05 1009.84 1009.66 1009.54 1009.48 1009.45 1009.43 1009.36 1009.23 1009.01 1008.73 1008.40 1008.08 1007.80 1007.60 1007.53 1007.57 1007.73
1010.57 1011.48 1012.27 1012.89 1013.28 1013.44 1013.41 1013.23 1012.98 1012.72 1012.52 1012.41 1012.38 1012.41 1012.45 1012.47 1012.41 1012.27 1012.05 1011.78 1011.50 1011.26 1011.10 1011.02 1011.01 1011.04 1011.07 1011.06 1011.00 1010.86 1010.67 1010.46 1010.27 1010.12 1010.03 1009.99 1009.97 1009.95 1009.88 1009.73 1009.50 1009.21 1008.88 1008.56 1008.28 1008.09 1007.99 1008.02 1008.15
1010.82 1011.60 1012.25 1012.74 1013.04 1013.16 1013.13 1013.01 1012.85 1012.70 1012.61 1012.59 1012.63 1012.70 1012.76 1012.78 1012.72 1012.58 1012.38 1012.14 1011.91 1011.72 1011.59 1011.52 1011.51 1011.51 1011.51 1011.46 1011.35 1011.19 1010.99 1010.79 1010.61 1010.49 1010.41 1010.38 1010.37 1010.34 1010.26 1010.11 1009.89 1009.61 1009.30 1009.00 1008.74 1008.56 1008.47 1008.48 1008.58
1011.01 1011.66 1012.18 1012.56 1012.79 1012.88 1012.87 1012.80 1012.72 1012.66 1012.66 1012.71 1012.79 1012.89 1012.96 1012.98 1012.92 1012.80 1012.63 1012.44 1012.26 1012.11 1012.02 1011.97 1011.95 1011.93 1011.88 1011.79 1011.65 1011.47 1011.27 1011.07 1010.91 1010.80 1010.74 1010.71 1010.69 1010.65 1010.56 1010.41 1010.19 1009.94 1009.66 1009.40 1009.18 1009.01 1008.93 1008.92 1008.98
1011.22 1011.75 1012.16 1012.44 1012.61 1012.68 1012.68 1012.65 1012.63 1012.63 1012.68 1012.76 1012.87 1012.96 1013.03 1013.04 1013.00 1012.91 1012.78 1012.64 1012.52 1012.42 1012.36 1012.33 1012.31 1012.27 1012.20 1012.09 1011.94 1011.75 1011.56 1011.38 1011.24 1011.14 1011.08 1011.05 1011.01 1010.95 1010.84 1010.69 1010.48 1010.25 1010.01 1009.79 1009.59 1009.45 1009.36 1009.33 1009.35
1011.51 1011.94 1012.25 1012.46 1012.57 1012.62 1012.62 1012.61 1012.61 1012.64 1012.70 1012.78 1012.87 1012.94 1013.00 1013.01 1012.98 1012.92 1012.84 1012.76 1012.70 1012.66 1012.64 1012.63 1012.62 1012.58 1012.51 1012.40 1012.26 1012.10 1011.93 1011.78 1011.66 1011.57 1011.51 1011.45 1011.39 1011.30 1011.17 1011.01 1010.81 1010.60 1010.38 1010.19 1010.02 1009.88 1009.79 1009.72 1009.69
1011.89 1012.23 1012.47 1012.62 1012.69 1012.71 1012.71 1012.69 1012.69 1012.70 1012.73 1012.78 1012.83 1012.88 1012.91 1012.92 1012.91 1012.89 1012.87 1012.85 1012.84 1012.85 1012.87 1012.88 1012.89 1012.88 1012.83 1012.76 1012.66 1012.54 1012.42 1012.31 1012.22 1012.13 1012.06 1011.98 1011.88 1011.76 1011.60 1011.42 1011.22 1011.02 1010.82 1010.64 1010.47 1010.33 1010.21 1010.11 1010.02
1012.32 1012.60 1012.78 1012.88 1012.92 1012.92 1012.90 1012.86 1012.83 1012.81 1012.79 1012.79 1012.80 1012.81 1012.82 1012.84 1012.86 1012.88 1012.91 1012.94 1012.98 1013.03 1013.09 1013.14 1013.17 1013.19 1013.19 1013.17 1013.13 1013.07 1013.02 1012.96 1012.89 1012.82 1012.73 1012.63 1012.49 1012.33 1012.15 1011.95 1011.74 1011.53 1011.34 1011.15 1010.98 1010.82 1010.66 1010.51 1010.37
1012.75 1012.97 1013.11 1013.17 1013.19 1013.17 1013.13 1013.06 1012.99 1012.91 1012.85 1012.79 1012.76 1012.74 1012.76 1012.79 1012.85 1012.92 1013.00 1013.08 1013.17 1013.25 1013.33 1013.40 1013.46 1013.52 1013.57 1013.61 1013.64 1013.67 1013.68 1013.67 1013.64 1013.58 1013.49 1013.36 1013.19 1013.00 1012.80 1012.58 1012.36 1012.15 1011.95 1011.75 1011.55 1011.35 1011.15 1010.95 1010.76
1013.08 1013.26 1013.36 1013.41 1013.41 1013.38 1013.31 1013.22 1013.10 1012.97 1012.85 1012.75 1012.69 1012.67 1012.70 1012.77 1012.88 1013.01 1013.14 1013.27 1013.38 1013.48 1013.57 1013.65 1013.74 1013.83 1013.93 1014.04 1014.16 1014.26 1014.35 1014.40 1014.40 1014.36 1014.26 1014.12 1013.94 1013.73 1013.51 1013.28 1013.06 1012.85 1012.64 1012.42 1012.19 1011.96 1011.71 1011.47 1011.24
1013.26 1013.39 1013.48 1013.52 1013.53 1013.49 1013.40 1013.27 1013.11 1012.92 1012.75 1012.61 1012.53 1012.52 1012.59 1012.72 1012.90 1013.10 1013.29 1013.46 1013.60 1013.71 1013.80 1013.88 1013.98 1014.09 1014.24 1014.42 1014.61 1014.79 1014.95 1015.06 1015.10 1015.08 1014.99 1014.85 1014.66 1014.46 1014.24 1014.03 1013.81 1013.60 1013.39 1013.16 1012.91 1012.64 1012.35 1012.07 1011.81
1013.25 1013.37 1013.45 1013.51 1013.52 1013.48 1013.38 1013.21 1012.99 1012.74 1012.51 1012.34 1012.25 1012.26 1012.37 1012.58 1012.83 1013.11 1013.37 1013.59 1013.75 1013.87 1013.95 1014.03 1014.13 1014.27 1014.46 1014.69 1014.94 1015.20 1015.43 1015.60 1015.69 1015.70 1015.63 1015.50 1015.34 1015.15 1014.96 1014.77 1014.58 1014.39 1014.18 1013.95 1013.68 1013.39 1013.08 1012.77 1012.49
1013.10 1013.22 1013.33 1013.41 1013.45 1013.41 1013.27 1013.05 1012.76 1012.43 1012.14 1011.91 1011.80 1011.83 1012.00 1012.28 1012.63 1012.99 1013.33 1013.60 1013.79 1013.92 1014.00 1014.07 1014.17 1014.33 1014.55 1014.83 1015.15 1015.47 1015.76 1015.99 1016.14 1016.19 1016.16 1016.06 1015.93 1015.78 1015.62 1015.48 1015.33 1015.17 1014.98 1014.76 1014.50 1014.20 1013.87 1013.55 1013.26
1012.89 1013.04 1013.20 1013.33 1013.39 1013.34 1013.17 1012.88 1012.49 1012.06 1011.66 1011.36 1011.22 1011.25 1011.45 1011.80 1012.24 1012.69 1013.11 1013.44 1013.68 1013.82 1013.91 1013.99 1014.09 1014.26 1014.52 1014.84 1015.22 1015.61 1015.97 1016.26 1016.45 1016.56 1016.57 1016.52 1016.43 1016.33 1016.23 1016.13 1016.03 1015.91 1015.76 1015.57 1015.32 1015.02 1014.71 1014.39 1014.10
1012.72 1012.93 1013.16 1013.35 1013.44 1013.39 1013.16 1012.77 1012.26 1011.69 1011.16 1010.76 1010.54 1010.55 1010.77 1011.17 1011.68 1012.21 1012.71 1013.11 1013.40 1013.58 1013.69 1013.78 1013.91 1014.11 1014.40 1014.77 1015.20 1015.65 1016.07 1016.42 1016.68 1016.83 1016.90 1016.90 1016.86 1016.81 1016.76 1016.72 1016.67 1016.60 1016.48 1016.32 1016.10 1015.83 1015.54 1015.24 1014.96
1012.66 1012.97 1013.29 1013.56 1013.68 1013.61 1013.32 1012.81 1012.15 1011.42 1010.73 1010.19 1009.87 1009.82 1010.02 1010.44 1011.00 1011.61 1012.18 1012.65 1013.00 1013.23 1013.38 1013.50 1013.66 1013.90 1014.23 1014.65 1015.14 1015.65 1016.13 1016.54 1016.85 1017.06 1017.18 1017.22 1017.23 1017.23 1017.23 1017.23 1017.22 1017.19 1017.12 1016.99 1016.81 1016.58 1016.32 1016.05 1015.80
1012.75 1013.18 1013.61 1013.95 1014.10 1014.01 1013.64 1013.01 1012.19 1011.28 1010.42 1009.72 1009.28 1009.13 1009.29 1009.71 1010.29 1010.94 1011.57 1012.11 1012.52 1012.81 1013.01 1013.19 1013.39 1013.68 1014.06 1014.54 1015.08 1015.64 1016.18 1016.64 1017.00 1017.26 1017.42 1017.51 1017.56 1017.59 1017.63 1017.66 1017.69 1017.69 1017.65 1017.56 1017.41 1017.22 1017.01 1016.78 1016.57
1012.97 1013.52 1014.05 1014.46 1014.65 1014.53 1014.09 1013.34 1012.37 1011.29 1010.26 1009.40 1008.82 1008.58 1008.67 1009.04 1009.62 1010.30 1010.96 1011.55 1012.01 1012.36 1012.62 1012.86 1013.12 1013.46 1013.90 1014.44 1015.03 1015.65 1016.23 1016.74 1017.15 1017.44 1017.64 1017.77 1017.85 1017.91 1017.96 1018.02 1018.07 1018.09 1018.07 1018.01 1017.89 1017.75 1017.57 1017.40 1017.22
1013.24 1013.90 1014.52 1014.99 1015.19 1015.05 1014.55 1013.70 1012.61 1011.39 1010.22 1009.22 1008.52 1008.17 1008.18 1008.50 1009.05 1009.72 1010.39 1011.01 1011.51 1011.92 1012.24 1012.54 1012.87 1013.27 1013.77 1014.35 1015.00 1015.66 1016.29 1016.84 1017.28 1017.61 1017.84 1017.99 1018.10 1018.18 1018.25 1018.32 1018.37 1018.40 1018.40 1018.35 1018.27 1018.15 1018.01 1017.88 1017.75
1013.46 1014.19 1014.87 1015.37 1015.58 1015.42 1014.87 1013.97 1012.80 1011.50 1010.23 1009.15 1008.35 1007.92 1007.85 1008.11 1008.60 1009.23 1009.89 1010.51 1011.04 1011.48 1011.85 1012.21 1012.60 1013.07 1013.63 1014.27 1014.96 1015.66 1016.32 1016.90 1017.38 1017.74 1018.00 1018.18 1018.31 1018.41 1018.50 1018.58 1018.64 1018.67 1018.67 1018.63 1018.55 1018.45 1018.34 1018.24 1018.14
1013.55 1014.30 1014.98 1015.47 1015.67 1015.50 1014.93 1014.01 1012.83 1011.51 1010.22 1009.11 1008.27 1007.78 1007.65 1007.84 1008.26 1008.83 1009.45 1010.04 1010.57 1011.03 1011.45 1011.86 1012.32 1012.85 1013.46 1014.15 1014.89 1015.62 1016.32 1016.93 1017.43 1017.82 1018.11 1018.33 1018.49 1018.62 1018.73 1018.82 1018.89 1018.92 1018.92 1018.87 1018.79 1018.69 1018.59 1018.50 1018.42
1013.42 1014.13 1014.76 1015.22 1015.38 1015.20 1014.64 1013.75 1012.61 1011.35 1010.12 1009.04 1008.21 1007.71 1007.54 1007.67 1008.02 1008.51 1009.06 1009.60 1010.11 1010.57 1011.01 1011.47 1011.98 1012.57 1013.24 1013.98 1014.76 1015.52 1016.24 1016.88 1017.41 1017.84 1018.17 1018.43 1018.64 1018.81 1018.95 1019.07 1019.15 1019.19 1019.18 1019.12 1019.03 1018.91 1018.80 1018.70 1018.62
1013.09 1013.69 1014.23 1014.60 1014.72 1014.52 1014.00 1013.18 1012.14 1011.00 1009.88 1008.90 1008.15 1007.67 1007.49 1007.56 1007.83 1008.23 1008.70 1009.17 1009.63 1010.08 1010.54 1011.04 1011.60 1012.25 1012.97 1013.76 1014.57 1015.37 1016.12 1016.78 1017.34 1017.81 1018.19 1018.50 1018.77 1018.99 1019.18 1019.34 1019.44 1019.49 1019.47 1019.40 1019.28 1019.14 1019.00 1018.87 1018.77
Thickness
5790 5793 5794 5787 5772 5755 5741 5743 5750 5750 5753 5759 5763 5761 5756 5752 5749 5742 5758 5766 5768 5768 5767 5766 5764 5765 5766 5767 5767 5768 5769 5767 5767 5767 5767 5767 5767 5767 5767 5767 5767 5767 5767 5767 5767 5768 5768 5769 5769
5793 5792 5788 5778 5759 5740 5733 5743 5745 5748 5754 5759 5761 5760 5756 5752 5757 5757 5760 5763 5766 5766 5766 5765 5762 5763 5763 5764 5765 5768 5767 5765 5764 5764 5764 5763 5763 5763 5763 5764 5764 5764 5764 5763 5764 5764 5765 5765 5765
5791 5790 5777 5765 5749 5740 5734 5743 5747 5751 5756 5757 5755 5757 5754 5749 5754 5757 5760 5763 5764 5764 5763 5762 5760 5760 5760 5761 5762 5763 5762 5761 5761 5760 5760 5760 5760 5760 5760 5760 5760 5760 5760 5760 5760 5760 5761 5761 5761
5787 5780 5771 5754 5738 5741 5744 5747 5750 5749 5752 5755 5755 5750 5752 5754 5756 5759 5760 5762 5763 5762 5761 5759 5757 5757 5757 5758 5758 5758 5758 5757 5757 5757 5757 5756 5757 5757 5757 5757 5757 5757 5757 5756 5756 5757 5757 5757 5758
5784 5770 5752 5740 5737 5742 5748 5751 5752 5748 5748 5751 5753 5745 5744 5753 5758 5759 5759 5760 5760 5760 5759 5757 5754 5754 5754 5754 5754 5754 5754 5753 5753 5753 5753 5753 5753 5753 5754 5753 5753 5753 5753 5753 5753 5753 5753 5753 5753
5769 5763 5743 5732 5733 5741 5747 5751 5751 5748 5747 5748 5748 5744 5742 5752 5754 5755 5757 5757 5758 5757 5756 5755 5751 5751 5751 5751 5751 5750 5750 5750 5749 5749 5749 5749 5749 5749 5749 5749 5749 5749 5749 5749 5749 5749 5749 5749 5749
5761 5751 5739 5735 5732 5735 5743 5751 5749 5746 5744 5746 5750 5743 5743 5748 5752 5754 5754 5755 5755 5755 5754 5753 5753 5751 5749 5748 5747 5746 5746 5746 5745 5745 5745 5745 5745 5745 5744 5744 5744 5744 5744 5744 5745 5745 5745 5745 5744
5765 5752 5737 5736 5732 5732 5744 5748 5749 5747 5744 5751 5752 5742 5739 5746 5751 5752 5751 5752 5752 5752 5752 5752 5751 5751 5750 5747 5744 5743 5742 5742 5742 5741 5741 5741 5741 5741 5741 5741 5740 5740 5739 5739 5739 5740 5740 5740 5740
5765 5746 5733 5733 5733 5735 5744 5744 5747 5752 5749 5748 5750 5748 5748 5750 5749 5748 5746 5747 5747 5748 5750 5750 5749 5748 5747 5746 5742 5741 5740 5739 5739 5739 5738 5739 5740 5740 5739 5737 5736 5736 5735 5735 5735 5735 5735 5736 5735
5755 5738 5735 5742 5745 5741 5742 5743 5745 5745 5741 5741 5743 5745 5747 5746 5746 5744 5743 5743 5743 5744 5746 5748 5747 5746 5745 5743 5741 5740 5740 5738 5738 5738 5737 5738 5737 5736 5735 5732 5732 5731 5731 5731 5731 5731 5732 5734 5734
5749 5738 5740 5743 5747 5746 5741 5741 5746 5741 5735 5739 5740 5740 5742 5742 5742 5742 5742 5743 5743 5744 5743 5745 5745 5744 5743 5741 5739 5738 5737 5736 5735 5735 5735 5734 5734 5733 5732 5731 5730 5729 5729 5730 5729 5731 5731 5731 5730
5743 5740 5742 5742 5744 5742 5741 5741 5740 5740 5739 5748 5748 5745 5741 5739 5739 5740 5741 5741 5742 5742 5741 5741 5742 5742 5741 5739 5738 5736 5735 5733 5732 5732 5732 5731 5731 5730 5730 5728 5727 5727 5726 5726 5727 5727 5727 5727 5727
5739 5737 5740 5742 5741 5741 5740 5738 5737 5737 5744 5747 5745 5742 5740 5739 5740 5741 5742 5741 5741 5739 5739 5739 5738 5739 5738 5736 5734 5734 5732 5731 5729 5727 5728 5728 5728 5728 5727 5725 5723 5724 5723 5723 5722 5723 5723 5723 5723
5737 5737 5737 5739 5738 5738 5735 5735 5735 5736 5742 5741 5739 5738 5739 5738 5738 5739 5739 5738 5739 5738 5738 5737 5736 5735 5735 5734 5732 5731 5729 5726 5725 5724 5725 5725 5724 5724 5722 5722 5720 5720 5719 5719 5719 5719 5718 5718 5717
5739 5732 5730 5733 5735 5735 5734 5726 5730 5738 5739 5736 5736 5737 5736 5736 5737 5736 5738 5738 5738 5737 5737 5735 5734 5733 5732 5731 5729 5727 5725 5724 5722 5721 5721 5721 5720 5720 5719 5718 5717 5716 5715 5715 5715 5715 5714 5714 5713
5734 5726 5717 5725 5730 5731 5726 5715 5730 5738 5735 5732 5734 5735 5733 5733 5735 5737 5737 5737 5737 5736 5735 5733 5731 5729 5728 5727 5725 5724 5722 5720 5719 5717 5717 5717 5716 5716 5715 5714 5713 5712 5711 5711 5710 5710 5710 5709 5708
5722 5715 5712 5717 5727 5727 5723 5717 5729 5734 5732 5730 5732 5733 5732 5732 5732 5734 5735 5735 5734 5734 5733 5730 5729 5727 5725 5724 5722 5720 5719 5716 5715 5714 5713 5713 5713 5712 5712 5710 5709 5709 5708 5708 5707 5706 5706 5704 5703
5711 5713 5711 5712 5721 5722 5718 5720 5727 5731 5729 5729 5731 5731 5730 5730 5731 5732 5732 5732 5732 5731 5730 5728 5726 5724 5722 5720 5720 5717 5715 5714 5712 5711 5709 5708 5708 5709 5708 5707 5707 5706 5705 5704 5703 5701 5701 5700 5699
5719 5713 5709 5713 5720 5716 5716 5718 5724 5729 5726 5725 5727 5728 5727 5728 5731 5731 5730 5729 5728 5727 5727 5725 5723 5721 5719 5716 5714 5713 5711 5710 5709 5707 5706 5705 5705 5704 5704 5704 5703 5702 5701 5700 5700 5698 5697 5696 5696
5715 5709 5708 5712 5717 5715 5714 5716 5724 5725 5723 5723 5724 5725 5726 5726 5726 5725 5725 5725 5725 5723 5723 5722 5720 5718 5716 5713 5713 5711 5710 5709 5707 5704 5703 5702 5702 5701 5700 5700 5700 5698 5696 5696 5695 5693 5693 5692 5692
5711 5708 5706 5705 5710 5714 5710 5710 5716 5721 5721 5720 5720 5723 5724 5722 5722 5722 5721 5721 5720 5719 5718 5717 5716 5715 5712 5710 5709 5707 5705 5704 5703 5701 5700 5699 5698 5697 5697 5697 5696 5695 5694 5693 5691 5690 5688 5687 5688
5704 5711 5708 5704 5701 5702 5704 5695 5710 5715 5714 5715 5715 5716 5718 5719 5719 5718 5717 5717 5716 5715 5715 5714 5713 5711 5709 5707 5705 5703 5701 5700 5700 5700 5698 5697 5695 5694 5694 5693 5692 5692 5691 5689 5688 5687 5686 5683 5682
5706 5708 5706 5703 5701 5699 5703 5696 5705 5712 5707 5709 5712 5712 5714 5715 5715 5714 5714 5714 5713 5712 5710 5709 5709 5707 5705 5704 5701 5700 5699 5699 5698 5696 5695 5694 5693 5691 5690 5689 5689 5688 5687 5686 5685 5683 5682 5681 5679
5706 5703 5701 5700 5699 5687 5696 5693 5695 5706 5705 5706 5708 5709 5710 5711 5711 5710 5710 5709 5708 5706 5704 5703 5702 5701 5700 5699 5698 5697 5696 5694 5693 5691 5691 5690 5690 5688 5687 5686 5685 5684 5683 5682 5680 5679 5678 5677 5675
5701 5693 5683 5681 5681 5685 5694 5689 5695 5704 5705 5703 5703 5704 5707 5708 5708 5706 5704 5703 5702 5701 5699 5698 5697 5696 5695 5695 5695 5695 5693 5692 5690 5689 5687 5686 5686 5685 5684 5682 5681 5680 5679 5678 5676 5675 5674 5673 5671
5696 5692 5677 5668 5673 5683 5688 5687 5698 5702 5703 5703 5702 5702 5702 5702 5703 5701 5700 5699 5698 5696 5695 5694 5693 5692 5691 5690 5691 5691 5690 5688 5687 5686 5684 5683 5682 5682 5681 5679 5677 5676 5674 5673 5671 5670 5669 5669 5668
5690 5688 5690 5681 5678 5674 5685 5691 5696 5698 5696 5697 5697 5696 5696 5696 5696 5696 5696 5695 5694 5692 5691 5691 5689 5688 5687 5686 5685 5685 5685 5684 5683 5682 5681 5680 5679 5677 5677 5675 5673 5672 5670 5668 5667 5665 5665 5664 5663
5691 5687 5680 5673 5664 5665 5677 5683 5686 5688 5688 5690 5691 5691 5691 5691 5691 5691 5691 5690 5690 5688 5687 5687 5685 5683 5682 5680 5680 5679 5679 5679 5678 5677 5676 5675 5674 5672 5671 5671 5669 5667 5665 5663 5662 5660 5659 5658 5657
5679 5676 5676 5674 5672 5664 5664 5678 5692 5688 5687 5685 5686 5687 5686 5685 5685 5685 5685 5685 5684 5683 5682 5681 5679 5677 5676 5675 5674 5673 5673 5673 5673 5672 5671 5670 5669 5668 5666 5665 5664 5662 5660 5658 5656 5654 5652 5652 5651
5680 5678 5674 5663 5664 5666 5664 5673 5687 5685 5684 5681 5681 5682 5681 5680 5680 5679 5678 5677 5676 5675 5675 5674 5673 5671 5670 5669 5668 5667 5667 5667 5666 5666 5665 5664 5663 5662 5660 5658 5657 5656 5654 5652 5650 5647 5646 5645 5644